Flag for USA

Past Weather in 41°12'52.0"N, 96°01'44.8"W, USA — Yesterday and Last 2 Weeks

Now
36 °F

Overcast.


Feels Like: 34 °F
Forecast: 34 / 28 °F
Wind: 3 mph from East

Location: Millard Airport
Current Time: Oct 24, 2020 at 10:14:59 pm
Latest Report: Oct 24, 2020 at 9:35 pm
Visibility: 10 mi
Pressure30.19 "Hg
Humidity: 67%
Dew Point: 26 °F
Location of 41°12'52.0"N, 96°01'44.8"WLocation

Past Weather in 41°12'52.0"N, 96°01'44.8"W — Graph

°F

41°12'52.0"N, 96°01'44.8"W Temperature Yesterday

Maximum temperature yesterday: 40 °F (at 1:35 pm)
Minimum temperature yesterday: 30 °F (at 11:55 pm)
Average temperature yesterday: 37 °F

High & Low Weather Summary for the Past Weeks

 TemperatureHumidityPressure
High88 °F (Oct 11, 4:35 pm)93% (Oct 20, 11:15 pm)30.42 "Hg (Oct 20, 11:15 pm)
Low25 °F (Oct 24, 8:15 am)20% (Oct 15, 4:35 pm)29.50 "Hg (Oct 11, 7:15 pm)
Average51 °F61%30.03 "Hg
* Reported Oct 9 8:15 pm — Oct 24 8:55 pm, 41°12'52.0"N, 96°01'44.8"W. Weather by CustomWeather, © 2020

Note: Actual official high and low records may vary slightly from our data, if they occured in-between our weather recording intervals... More about our weather records

41°12'52.0"N, 96°01'44.8"W Weather History for the Previous 24 Hours

Scroll right to see more
 ConditionsComfort  
Time TempWeatherWind HumidityBarometerVisibility
8:55 pm
Sat, Oct 24
36 °FOvercast.3 mph67%30.19 "Hg10 mi
8:35 pm36 °FOvercast.5 mph67%30.18 "Hg10 mi
8:15 pm36 °FOvercast.6 mph67%30.18 "Hg10 mi
7:55 pm36 °FOvercast.6 mph67%30.19 "Hg10 mi
6:55 pm36 °FOvercast.8 mph66%30.18 "Hg10 mi
6:35 pm36 °FPassing clouds.6 mph65%30.18 "Hg10 mi
6:15 pm36 °FSunny.5 mph64%30.18 "Hg10 mi
5:50 pm37 °FScattered clouds.7 mph61%30.17 "Hg10 mi
5:35 pm38 °FPartly sunny.6 mph58%30.16 "Hg10 mi
5:15 pm39 °FScattered clouds.8 mph57%30.17 "Hg10 mi
4:55 pm40 °FScattered clouds.7 mph54%30.16 "Hg10 mi
4:35 pm40 °FScattered clouds.6 mph53%30.16 "Hg10 mi
4:15 pm40 °FSunny.8 mph52%30.16 "Hg10 mi
3:55 pm38 °FSunny.6 mph54%30.17 "Hg10 mi
3:35 pm38 °FScattered clouds.3 mph55%30.18 "Hg10 mi
2:55 pm38 °FPartly sunny.6 mph55%30.20 "Hg10 mi
2:35 pm37 °FPartly sunny.9 mph57%30.21 "Hg10 mi
2:15 pm37 °FOvercast.7 mph57%30.22 "Hg10 mi
1:55 pm37 °FOvercast.8 mph57%30.22 "Hg10 mi
1:35 pm35 °FOvercast.9 mph62%30.24 "Hg10 mi
1:15 pm35 °FOvercast.5 mph61%30.25 "Hg10 mi
12:55 pm35 °FOvercast.6 mph61%30.25 "Hg10 mi
12:35 pm34 °FOvercast.6 mph61%30.27 "Hg10 mi
12:15 pm34 °FOvercast.10 mph60%30.29 "Hg10 mi
11:55 am33 °FPartly sunny.3 mph62%30.29 "Hg10 mi
11:35 am34 °FPartly sunny.10 mph61%30.29 "Hg10 mi
11:15 am33 °FOvercast.10 mph63%30.30 "Hg10 mi
10:55 am32 °FScattered clouds.6 mph64%30.30 "Hg10 mi
10:35 am32 °FPartly sunny.7 mph65%30.31 "Hg10 mi
10:15 am31 °FOvercast.3 mph67%30.31 "Hg10 mi
9:55 am31 °FPartly sunny.8 mph69%30.30 "Hg10 mi
9:35 am30 °FScattered clouds.5 mph70%30.31 "Hg10 mi
8:55 am29 °FSunny.5 mph77%30.31 "Hg10 mi
8:35 am26 °FSunny.No wind86%30.30 "Hg10 mi
8:15 am25 °FScattered clouds.No wind85%30.30 "Hg10 mi
7:55 am25 °FScattered clouds.No wind84%30.30 "Hg10 mi
7:35 am26 °FClear.No wind85%30.31 "Hg10 mi
7:15 am25 °FClear.No wind85%30.31 "Hg10 mi
6:55 am25 °FClear.No wind84%30.31 "Hg10 mi
6:35 am26 °FClear.No wind85%30.32 "Hg10 mi
5:55 am26 °FClear.No wind83%30.33 "Hg10 mi
5:35 am27 °FClear.No wind82%30.33 "Hg10 mi
5:15 am27 °FClear.No wind81%30.33 "Hg10 mi
4:55 am27 °FClear.No wind82%30.35 "Hg10 mi
4:35 am27 °FClear.No wind80%30.36 "Hg10 mi
4:15 am27 °FClear.No wind81%30.36 "Hg10 mi
3:55 am26 °FClear.No wind85%30.36 "Hg10 mi
3:35 am27 °FClear.No wind82%30.37 "Hg10 mi
3:15 am28 °FClear.No wind82%30.38 "Hg10 mi
2:55 am28 °FClear.No wind82%30.39 "Hg10 mi
2:35 am26 °FPassing clouds.No wind83%30.38 "Hg10 mi
1:35 am28 °FClear.No wind80%30.40 "Hg10 mi
12:55 am29 °FClear.No wind82%30.39 "Hg10 mi
12:35 am28 °FClear.No wind80%30.40 "Hg10 mi
12:15 am29 °FClear.No wind79%30.41 "Hg10 mi
11:55 pm
Fri, Oct 23
30 °FClear.No wind79%30.42 "Hg10 mi
11:35 pm30 °FClear.No wind76%30.42 "Hg10 mi
11:15 pm31 °FClear.No wind75%30.42 "Hg10 mi
10:55 pm32 °FClear.No wind71%30.42 "Hg10 mi
10:35 pm34 °FPassing clouds.No wind66%30.42 "Hg10 mi
10:15 pm34 °FPassing clouds.No wind64%30.42 "Hg10 mi
Weather by CustomWeather, © 2020

See weather overview